Location: Latina
(41.4670°N, 12.8670°E)
Time: 17:14:45
(UTC+02:00)

ISS - Pass Details

Date: 14 May 2021
Orbit: 417 x 422 km, 51.6° (Epoch: 18 June)

Event Time Altitude Azimuth Distance (km) Brightness Sun altitude
Exits shadow 02:50:22 - 309° (NW) 2,315 0.1 -25.1°
Reaches altitude 10° 02:52:46 10° 328° (NNW) 1,508 -0.6 -24.9°
Maximum altitude 02:55:13 18° 14° (NNE) 1,101 -0.8 -24.7°
Drops below altitude 10° 02:57:40 10° 61° (ENE) 1,508 -0.2 -24.5°
Sets 03:00:14 0° 80° (E) 2,372 0.6 -24.2°
